| time (UTC) | temp C | wind direction | speed KPH | gust KPH | rain 1hr cm | rain 24hr cm | rain mn cm | humidity % | barometer mb |
| 20260506015003 | 10 | 34 | 3.2 | 6.4 | 0.00 | 0.08 | 0.08 | 66 | 1031.8 |
| 20260506014501 | 10 | 43 | 4.8 | 6.4 | 0.00 | 0.08 | 0.08 | 66 | 1031.6 |
| 20260506013957 | 10 | 32 | 3.2 | 6.4 | 0.00 | 0.08 | 0.08 | 66 | 1031.5 |
| 20260506013455 | 10 | 23 | 3.2 | 3.2 | 0.00 | 0.08 | 0.08 | 66 | 1031.2 |
| 20260506012951 | 10 | 58 | 3.2 | 6.4 | 0.00 | 0.08 | 0.08 | 65 | 1031.2 |
| 20260506012447 | 10 | 51 | 4.8 | 6.4 | 0.00 | 0.08 | 0.08 | 66 | 1031.1 |
| 20260506011944 | 10 | 73 | 3.2 | 6.4 | 0.00 | 0.08 | 0.08 | 66 | 1031.1 |
| 20260506011442 | 10 | 43 | 3.2 | 4.8 | 0.00 | 0.08 | 0.08 | 66 | 1031.1 |
| 20260506010938 | 10 | 99 | 3.2 | 8.0 | 0.00 | 0.08 | 0.08 | 66 | 1030.9 |
| 20260506010438 | 10 | 51 | 3.2 | 4.8 | 0.00 | 0.08 | 0.08 | 66 | 1031.0 |
| 20260506005933 | 10 | 51 | 3.2 | 4.8 | 0.00 | 0.08 | 0.08 | 67 | 1031.1 |
| 20260506005432 | 10 | 327 | 0.0 | 1.6 | 0.00 | 0.08 | 0.08 | 64 | 1031.0 |
| 20260506004926 | 10 | 61 | 3.2 | 3.2 | 0.00 | 0.08 | 0.08 | 63 | 1030.9 |
| 20260506004425 | 10 | 47 | 1.6 | 3.2 | 0.00 | 0.08 | 0.08 | 64 | 1030.8 |
| 20260506003920 | 10 | 49 | 1.6 | 1.6 | 0.00 | 0.08 | 0.08 | 64 | 1030.8 |
| 20260506003417 | 10 | 71 | 0.0 | 3.2 | 0.00 | 0.08 | 0.08 | 64 | 1030.7 |
| 20260506002913 | 10 | 43 | 0.0 | 0.0 | 0.00 | 0.08 | 0.08 | 66 | 1030.8 |
| 20260506002409 | 10 | 44 | 0.0 | 0.0 | 0.00 | 0.08 | 0.08 | 66 | 1030.7 |
| 20260506001905 | 10 | 128 | 0.0 | 0.0 | 0.00 | 0.08 | 0.08 | 64 | 1030.7 |
| 20260506001402 | 10 | 76 | 1.6 | 3.2 | 0.00 | 0.08 | 0.08 | 64 | 1030.6 |
| 20260506000859 | 10 | 59 | 3.2 | 6.4 | 0.00 | 0.08 | 0.08 | 64 | 1030.5 |
| 20260506000357 | 10 | 84 | 3.2 | 3.2 | 0.00 | 0.08 | 0.08 | 63 | 1030.5 |
| 20260505235853 | 10 | 92 | 3.2 | 4.8 | 0.00 | 0.08 | 0.08 | 62 | 1030.5 |
| 20260505235351 | 10 | 61 | 4.8 | 6.4 | 0.00 | 0.08 | 0.08 | 62 | 1030.5 |
| 20260505234848 | 10 | 45 | 1.6 | 3.2 | 0.00 | 0.08 | 0.08 | 59 | 1030.3 |
| 20260505234346 | 10 | 79 | 0.0 | 3.2 | 0.00 | 0.08 | 0.08 | 59 | 1030.3 |
| 20260505233842 | 10 | 17 | 0.0 | 3.2 | 0.00 | 0.08 | 0.08 | 60 | 1030.3 |
| 20260505233340 | 10 | 172 | 0.0 | 1.6 | 0.00 | 0.08 | 0.08 | 60 | 1030.2 |
| 20260505232837 | 10 | 89 | 0.0 | 3.2 | 0.00 | 0.08 | 0.08 | 61 | 1030.1 |
| 20260505232335 | 11 | 172 | 0.0 | 1.6 | 0.00 | 0.08 | 0.08 | 61 | 1030.0 |
| 20260505231831 | 11 | 40 | 1.6 | 1.6 | 0.00 | 0.08 | 0.08 | 61 | 1029.9 |
| 20260505231329 | 11 | 161 | 0.0 | 3.2 | 0.00 | 0.08 | 0.08 | 60 | 1030.0 |
| 20260505230827 | 11 | 29 | 3.2 | 4.8 | 0.00 | 0.08 | 0.08 | 60 | 1030.1 |
| 20260505230324 | 11 | 28 | 3.2 | 3.2 | 0.00 | 0.08 | 0.08 | 60 | 1030.2 |
| 20260505225821 | 11 | 297 | 0.0 | 3.2 | 0.00 | 0.08 | 0.08 | 60 | 1030.2 |
| 20260505225318 | 11 | 354 | 0.0 | 4.8 | 0.00 | 0.08 | 0.08 | 61 | 1030.3 |
| 20260505224813 | 11 | 248 | 3.2 | 4.8 | 0.00 | 0.08 | 0.08 | 61 | 1030.4 |
| 20260505224311 | 11 | 277 | 3.2 | 6.4 | 0.00 | 0.08 | 0.08 | 60 | 1030.4 |
| 20260505223808 | 11 | 313 | 3.2 | 6.4 | 0.00 | 0.08 | 0.08 | 61 | 1030.5 |
| 20260505223305 | 11 | 317 | 3.2 | 4.8 | 0.00 | 0.08 | 0.08 | 61 | 1030.2 |
| 20260505222801 | 10 | 275 | 1.6 | 6.4 | 0.00 | 0.08 | 0.08 | 61 | 1030.6 |
| 20260505222257 | 11 | 289 | 3.2 | 8.0 | 0.00 | 0.08 | 0.08 | 62 | 1030.6 |
| 20260505221754 | 10 | 287 | 3.2 | 6.4 | 0.00 | 0.08 | 0.08 | 63 | 1030.5 |
| 20260505221251 | 10 | 295 | 0.0 | 4.8 | 0.00 | 0.08 | 0.08 | 63 | 1030.6 |
| 20260505220748 | 10 | 254 | 3.2 | 6.4 | 0.00 | 0.08 | 0.08 | 64 | 1030.6 |
| 20260505220245 | 10 | 39 | 1.6 | 8.0 | 0.00 | 0.08 | 0.08 | 63 | 1030.3 |
| 20260505215743 | 10 | 305 | 4.8 | 6.4 | 0.00 | 0.08 | 0.08 | 63 | 1030.3 |
| 20260505215241 | 10 | 321 | 1.6 | 11.3 | 0.00 | 0.08 | 0.08 | 62 | 1030.1 |
| 20260505214739 | 10 | 306 | 3.2 | 8.0 | 0.00 | 0.08 | 0.08 | 62 | 1030.0 |
| 20260505214236 | 10 | 13 | 0.0 | 9.7 | 0.00 | 0.08 | 0.08 | 62 | 1030.4 |
| 20260505213733 | 10 | 275 | 3.2 | 4.8 | 0.00 | 0.08 | 0.08 | 63 | 1030.1 |
| 20260505213230 | 10 | 265 | 6.4 | 9.7 | 0.00 | 0.08 | 0.08 | 62 | 1030.0 |
| 20260505212726 | 10 | 285 | 3.2 | 9.7 | 0.00 | 0.08 | 0.08 | 63 | 1030.1 |
| 20260505212223 | 10 | 282 | 9.7 | 12.9 | 0.00 | 0.08 | 0.08 | 63 | 1030.1 |
| 20260505211720 | 10 | 265 | 4.8 | 12.9 | 0.00 | 0.08 | 0.08 | 64 | 1029.9 |
| 20260505211218 | 10 | 279 | 8.0 | 14.5 | 0.00 | 0.08 | 0.08 | 66 | 1029.9 |
| 20260505210714 | 10 | 279 | 6.4 | 9.7 | 0.00 | 0.08 | 0.08 | 66 | 1030.0 |
| 20260505210211 | 10 | 278 | 3.2 | 8.0 | 0.00 | 0.08 | 0.08 | 67 | 1030.0 |
| 20260505205708 | 10 | 232 | 1.6 | 9.7 | 0.00 | 0.08 | 0.08 | 68 | 1030.1 |
| 20260505205206 | 10 | 321 | 3.2 | 9.7 | 0.00 | 0.08 | 0.08 | 69 | 1030.0 |
| 20260505204702 | 10 | 60 | 3.2 | 9.7 | 0.00 | 0.08 | 0.08 | 69 | 1029.9 |
| 20260505204200 | 11 | 18 | 0.0 | 9.7 | 0.00 | 0.08 | 0.08 | 70 | 1029.9 |
| 20260505203658 | 11 | 275 | 6.4 | 11.3 | 0.05 | 0.08 | 0.08 | 69 | 1030.2 |
| 20260505203154 | 11 | 275 | 3.2 | 9.7 | 0.05 | 0.08 | 0.08 | 69 | 1030.0 |
| 20260505202649 | 11 | 351 | 3.2 | 8.0 | 0.00 | 0.08 | 0.08 | 70 | 1029.7 |
| 20260505202146 | 11 | 259 | 4.8 | 8.0 | 0.00 | 0.08 | 0.08 | 68 | 1029.9 |
| 20260505201643 | 11 | 293 | 3.2 | 8.0 | 0.00 | 0.08 | 0.08 | 68 | 1029.8 |
| 20260505201141 | 11 | 165 | 3.2 | 8.0 | 0.00 | 0.08 | 0.08 | 69 | 1029.7 |
| 20260505200639 | 11 | 19 | 3.2 | 6.4 | 0.00 | 0.08 | 0.08 | 71 | 1029.6 |
| 20260505200135 | 11 | 141 | 0.0 | 3.2 | 0.00 | 0.08 | 0.08 | 72 | 1029.7 |
| 20260505195631 | 11 | 137 | 3.2 | 8.0 | 0.05 | 0.08 | 0.08 | 70 | 1029.8 |
| 20260505195129 | 11 | 126 | 3.2 | 8.0 | 0.23 | 0.08 | 0.08 | 68 | 1029.8 |
| 20260505194626 | 12 | 279 | 4.8 | 8.0 | 0.36 | 0.05 | 0.05 | 66 | 1029.4 |
| 20260505194121 | 12 | 29 | 4.8 | 9.7 | 0.13 | 0.03 | 0.03 | 62 | 1029.2 |
| 20260505193619 | 12 | 28 | 8.0 | 9.7 | 0.00 | 0.00 | 0.00 | 59 | 1029.4 |
| 20260505193116 | 13 | 313 | 4.8 | 6.4 | 0.00 | 0.00 | 0.00 | 58 | 1029.5 |
| 20260505192614 | 13 | 3 | 8.0 | 9.7 | 0.00 | 0.00 | 0.00 | 57 | 1029.2 |
| 20260505192111 | 13 | 330 | 6.4 | 9.7 | 0.00 | 0.00 | 0.00 | 56 | 1028.9 |
| 20260505191610 | 13 | 357 | 4.8 | 9.7 | 0.00 | 0.00 | 0.00 | 57 | 1028.9 |
| 20260505191107 | 14 | 354 | 3.2 | 9.7 | 0.00 | 0.00 | 0.00 | 51 | 1028.8 |
| 20260505190602 | 14 | 346 | 6.4 | 11.3 | 0.00 | 0.00 | 0.00 | 48 | 1028.7 |
| 20260505190058 | 14 | 26 | 4.8 | 9.7 | 0.00 | 0.00 | 0.00 | 48 | 1028.7 |
| 20260505185555 | 14 | 310 | 9.7 | 12.9 | 0.00 | 0.00 | 0.00 | 47 | 1028.7 |
| 20260505185051 | 15 | 345 | 6.4 | 20.9 | 0.00 | 0.00 | 0.00 | 46 | 1028.7 |
| 20260505184548 | 15 | 300 | 11.3 | 24.1 | 0.00 | 0.00 | 0.00 | 46 | 1028.3 |
| 20260505184045 | 15 | 286 | 4.8 | 14.5 | 0.00 | 0.00 | 0.00 | 47 | 1028.2 |
| 20260505183541 | 15 | 337 | 9.7 | 14.5 | 0.00 | 0.00 | 0.00 | 47 | 1028.4 |
| 20260505183039 | 15 | 347 | 9.7 | 19.3 | 0.00 | 0.00 | 0.00 | 46 | 1028.4 |
| 20260505182535 | 15 | 306 | 6.4 | 14.5 | 0.00 | 0.00 | 0.00 | 45 | 1028.1 |
| 20260505182032 | 15 | 287 | 16.1 | 20.9 | 0.00 | 0.00 | 0.00 | 46 | 1027.9 |
| 20260505181528 | 15 | 309 | 6.4 | 14.5 | 0.00 | 0.00 | 0.00 | 46 | 1028.0 |
| 20260505181026 | 16 | 305 | 8.0 | 12.9 | 0.00 | 0.00 | 0.00 | 46 | 1027.9 |
| 20260505180521 | 15 | 307 | 9.7 | 14.5 | 0.00 | 0.00 | 0.00 | 47 | 1027.9 |
| 20260505180020 | 15 | 14 | 6.4 | 20.9 | 0.00 | 0.00 | 0.00 | 48 | 1027.7 |
| 20260505175514 | 15 | 322 | 3.2 | 14.5 | 0.00 | 0.00 | 0.00 | 48 | 1027.6 |
| 20260505175012 | 16 | 295 | 9.7 | 19.3 | 0.00 | 0.00 | 0.00 | 48 | 1027.4 |
| 20260505174509 | 16 | 318 | 3.2 | 11.3 | 0.00 | 0.00 | 0.00 | 48 | 1027.4 |
| 20260505174004 | 16 | 288 | 12.9 | 14.5 | 0.00 | 0.00 | 0.00 | 48 | 1027.5 |
| 20260505173501 | 16 | 260 | 14.5 | 16.1 | 0.00 | 0.00 | 0.00 | 47 | 1027.3 |
| 20260505172958 | 16 | 283 | 9.7 | 16.1 | 0.00 | 0.00 | 0.00 | 50 | 1027.2 |
| 20260505172457 | 16 | 275 | 9.7 | 14.5 | 0.00 | 0.00 | 0.00 | 48 | 1027.3 |
| 20260505171956 | 17 | 331 | 3.2 | 14.5 | 0.00 | 0.00 | 0.00 | 48 | 1027.1 |
| 20260505171453 | 17 | 301 | 8.0 | 17.7 | 0.00 | 0.00 | 0.00 | 48 | 1026.6 |
| 20260505170949 | 17 | 274 | 9.7 | 12.9 | 0.00 | 0.00 | 0.00 | 52 | 1026.8 |
| 20260505170446 | 17 | 290 | 6.4 | 19.3 | 0.00 | 0.00 | 0.00 | 52 | 1026.7 |
| 20260505165942 | 17 | 333 | 1.6 | 22.5 | 0.00 | 0.00 | 0.00 | 52 | 1026.7 |
| 20260505165438 | 17 | 231 | 3.2 | 9.7 | 0.00 | 0.00 | 0.00 | 53 | 1026.3 |
| 20260505164933 | 17 | 293 | 14.5 | 14.5 | 0.00 | 0.00 | 0.00 | 53 | 1026.4 |
| 20260505164430 | 17 | 228 | 3.2 | 11.3 | 0.00 | 0.00 | 0.00 | 54 | 1026.4 |
| 20260505163928 | 17 | 341 | 0.0 | 8.0 | 0.00 | 0.00 | 0.00 | 55 | 1026.4 |
| 20260505163427 | 17 | 301 | 4.8 | 6.4 | 0.00 | 0.00 | 0.00 | 58 | 1026.4 |
| 20260505162926 | 16 | 67 | 3.2 | 8.0 | 0.00 | 0.00 | 0.00 | 60 | 1026.9 |
| 20260505162421 | 16 | 235 | 3.2 | 3.2 | 0.00 | 0.00 | 0.00 | 60 | 1026.8 |
| 20260505161918 | 16 | 101 | 1.6 | 4.8 | 0.00 | 0.00 | 0.00 | 60 | 1026.7 |
| 20260505161415 | 15 | 358 | 3.2 | 4.8 | 0.00 | 0.00 | 0.00 | 61 | 1026.9 |
| 20260505160912 | 15 | 14 | 4.8 | 9.7 | 0.00 | 0.00 | 0.00 | 62 | 1026.7 |
| 20260505160410 | 15 | 273 | 6.4 | 6.4 | 0.00 | 0.00 | 0.00 | 61 | 1026.7 |
| 20260505153349 | 15 | 354 | 6.4 | 6.4 | 0.00 | 0.00 | 0.00 | 61 | 1026.3 |
| 20260505152846 | 14 | 0 | 3.2 | 6.4 | 0.00 | 0.00 | 0.00 | 63 | 1026.0 |
| 20260505152344 | 14 | 355 | 6.4 | 9.7 | 0.00 | 0.00 | 0.00 | 64 | 1026.7 |
| 20260505151843 | 14 | 337 | 8.0 | 8.0 | 0.00 | 0.00 | 0.00 | 62 | 1026.6 |
| 20260505151340 | 14 | 345 | 4.8 | 8.0 | 0.00 | 0.00 | 0.00 | 63 | 1026.3 |
| 20260505150837 | 14 | 359 | 4.8 | 9.7 | 0.00 | 0.00 | 0.00 | 62 | 1025.9 |
| 20260505150334 | 14 | 354 | 4.8 | 6.4 | 0.00 | 0.00 | 0.00 | 63 | 1025.9 |
| 20260505140258 | 13 | 57 | 3.2 | 9.7 | 0.00 | 0.00 | 0.00 | 64 | 1024.8 |
| 20260505130222 | 17 | 311 | 4.8 | 12.9 | 0.00 | 0.00 | 0.00 | 66 | 1023.6 |
| 20260505124712 | 16 | 266 | 9.7 | 9.7 | 0.00 | 0.00 | 0.00 | 69 | 1023.3 |
| 20260505124209 | 16 | 347 | 1.6 | 6.4 | 0.00 | 0.00 | 0.00 | 70 | 1023.0 |
| 20260505123705 | 16 | 322 | 6.4 | 9.7 | 0.00 | 0.00 | 0.00 | 70 | 1022.9 |
| 20260505123202 | 16 | 332 | 4.8 | 16.1 | 0.00 | 0.00 | 0.00 | 69 | 1022.8 |
| 20260505122658 | 16 | 272 | 4.8 | 9.7 | 0.00 | 0.00 | 0.00 | 70 | 1022.8 |
| 20260505122155 | 16 | 276 | 3.2 | 11.3 | 0.00 | 0.00 | 0.00 | 70 | 1022.7 |
| 20260505121652 | 16 | 275 | 6.4 | 9.7 | 0.00 | 0.00 | 0.00 | 70 | 1022.7 |
| 20260505121148 | 16 | 249 | 4.8 | 8.0 | 0.00 | 0.00 | 0.00 | 69 | 1022.9 |
| 20260505120645 | 16 | 3 | 4.8 | 14.5 | 0.00 | 0.00 | 0.00 | 69 | 1022.7 |
| 20260505120141 | 16 | 277 | 4.8 | 11.3 | 0.00 | 0.00 | 0.00 | 69 | 1022.9 |
| 20260505115635 | 16 | 0 | 4.8 | 14.5 | 0.00 | 0.00 | 0.00 | 69 | 1022.8 |
| 20260505115133 | 16 | 332 | 3.2 | 9.7 | 0.00 | 0.00 | 0.00 | 69 | 1023.0 |
| 20260505114630 | 16 | 315 | 3.2 | 14.5 | 0.00 | 0.00 | 0.00 | 69 | 1022.9 |
| 20260505114126 | 16 | 310 | 6.4 | 16.1 | 0.00 | 0.00 | 0.00 | 69 | 1022.9 |
| 20260505113622 | 16 | 350 | 3.2 | 16.1 | 0.00 | 0.00 | 0.00 | 69 | 1022.7 |
| 20260505113119 | 16 | 261 | 3.2 | 12.9 | 0.00 | 0.00 | 0.00 | 69 | 1022.8 |
| 20260505112615 | 16 | 273 | 11.3 | 12.9 | 0.00 | 0.00 | 0.00 | 69 | 1022.6 |
| 20260505112114 | 16 | 24 | 4.8 | 9.7 | 0.00 | 0.00 | 0.00 | 69 | 1022.6 |
| 20260505111613 | 16 | 295 | 6.4 | 9.7 | 0.00 | 0.00 | 0.00 | 69 | 1022.3 |
| 20260505111109 | 16 | 242 | 6.4 | 9.7 | 0.00 | 0.00 | 0.00 | 70 | 1022.3 |
| 20260505110606 | 16 | 326 | 3.2 | 9.7 | 0.00 | 0.00 | 0.00 | 70 | 1022.5 |
| 20260505102038 | 16 | 313 | 3.2 | 6.4 | 0.00 | 0.00 | 0.00 | 70 | 1021.6 |
| 20260505101537 | 16 | 302 | 6.4 | 14.5 | 0.00 | 0.00 | 0.00 | 69 | 1021.6 |
| 20260505101033 | 16 | 324 | 3.2 | 16.1 | 0.00 | 0.00 | 0.00 | 69 | 1021.4 |
| 20260505100530 | 16 | 280 | 6.4 | 11.3 | 0.00 | 0.00 | 0.00 | 69 | 1021.3 |
| 20260505100027 | 16 | 267 | 9.7 | 11.3 | 0.00 | 0.00 | 0.00 | 69 | 1021.3 |
| 20260505095523 | 16 | 289 | 9.7 | 11.3 | 0.00 | 0.00 | 0.00 | 68 | 1021.2 |
| 20260505095019 | 16 | 321 | 4.8 | 14.5 | 0.00 | 0.00 | 0.00 | 68 | 1021.3 |
| 20260505094516 | 16 | 282 | 9.7 | 12.9 | 0.00 | 0.00 | 0.00 | 68 | 1021.0 |
| 20260505094012 | 16 | 357 | 3.2 | 14.5 | 0.00 | 0.00 | 0.00 | 68 | 1020.9 |
| 20260505093509 | 16 | 291 | 6.4 | 16.1 | 0.00 | 0.00 | 0.00 | 68 | 1021.3 |
| 20260505093006 | 16 | 320 | 6.4 | 14.5 | 0.00 | 0.00 | 0.00 | 68 | 1021.6 |
| 20260505092504 | 16 | 266 | 3.2 | 11.3 | 0.00 | 0.00 | 0.00 | 68 | 1021.2 |
| 20260505092001 | 16 | 295 | 6.4 | 9.7 | 0.00 | 0.00 | 0.00 | 68 | 1021.3 |
| 20260505091458 | 16 | 310 | 4.8 | 11.3 | 0.00 | 0.00 | 0.00 | 69 | 1021.2 |
| 20260505090956 | 16 | 315 | 6.4 | 8.0 | 0.00 | 0.00 | 0.00 | 69 | 1021.6 |
| 20260505090454 | 16 | 269 | 6.4 | 16.1 | 0.00 | 0.00 | 0.00 | 69 | 1021.2 |
| 20260505085951 | 16 | 348 | 6.4 | 12.9 | 0.00 | 0.00 | 0.00 | 69 | 1021.3 |
| 20260505085449 | 16 | 326 | 3.2 | 14.5 | 0.00 | 0.00 | 0.00 | 70 | 1021.2 |
| 20260505084947 | 16 | 298 | 6.4 | 14.5 | 0.00 | 0.00 | 0.00 | 70 | 1021.1 |
| 20260505084445 | 16 | 28 | 3.2 | 8.0 | 0.00 | 0.00 | 0.00 | 69 | 1021.1 |
| 20260505083943 | 16 | 280 | 6.4 | 12.9 | 0.00 | 0.00 | 0.00 | 69 | 1021.0 |
| 20260505083440 | 16 | 307 | 6.4 | 8.0 | 0.00 | 0.00 | 0.00 | 69 | 1021.4 |
| 20260505082936 | 16 | 5 | 4.8 | 12.9 | 0.00 | 0.00 | 0.00 | 69 | 1021.4 |
| 20260505082432 | 16 | 241 | 9.7 | 9.7 | 0.00 | 0.00 | 0.00 | 69 | 1021.4 |
| 20260505081929 | 16 | 1 | 4.8 | 8.0 | 0.00 | 0.00 | 0.00 | 69 | 1021.6 |
| 20260505081426 | 16 | 318 | 4.8 | 9.7 | 0.00 | 0.00 | 0.00 | 68 | 1021.7 |
| 20260505080922 | 16 | 323 | 3.2 | 12.9 | 0.00 | 0.00 | 0.00 | 68 | 1021.8 |
| 20260505080419 | 16 | 269 | 3.2 | 9.7 | 0.00 | 0.00 | 0.00 | 68 | 1021.7 |
| 20260505075914 | 16 | 285 | 4.8 | 12.9 | 0.00 | 0.00 | 0.00 | 68 | 1021.6 |
| 20260505075411 | 16 | 329 | 4.8 | 16.1 | 0.00 | 0.00 | 0.00 | 68 | 1021.7 |
| 20260505074909 | 16 | 304 | 8.0 | 12.9 | 0.00 | 0.00 | 0.00 | 68 | 1021.6 |
| 20260505074406 | 16 | 313 | 3.2 | 14.5 | 0.00 | 0.00 | 0.00 | 68 | 1021.7 |
| 20260505073903 | 16 | 10 | 3.2 | 6.4 | 0.00 | 0.00 | 0.00 | 68 | 1021.9 |
| 20260505073400 | 16 | 337 | 3.2 | 14.5 | 0.00 | 0.00 | 0.00 | 68 | 1021.8 |
| 20260505072857 | 16 | 311 | 3.2 | 9.7 | 0.00 | 0.00 | 0.00 | 67 | 1022.0 |
| 20260505072353 | 16 | 278 | 8.0 | 8.0 | 0.00 | 0.00 | 0.00 | 67 | 1021.9 |
| 20260505071850 | 16 | 308 | 4.8 | 9.7 | 0.00 | 0.00 | 0.00 | 66 | 1021.8 |
| 20260505071346 | 16 | 259 | 3.2 | 17.7 | 0.00 | 0.00 | 0.00 | 66 | 1021.7 |
| 20260505070845 | 16 | 288 | 8.0 | 11.3 | 0.00 | 0.00 | 0.00 | 66 | 1021.6 |
| 20260505070341 | 16 | 66 | 1.6 | 9.7 | 0.00 | 0.00 | 0.00 | 66 | 1021.8 |
| 20260505065836 | 17 | 286 | 3.2 | 19.3 | 0.00 | 0.00 | 0.00 | 65 | 1021.8 |
| 20260505065333 | 17 | 13 | 3.2 | 12.9 | 0.00 | 0.00 | 0.00 | 65 | 1021.7 |
| 20260505064830 | 17 | 281 | 11.3 | 14.5 | 0.00 | 0.00 | 0.00 | 65 | 1021.7 |
| 20260505064327 | 16 | 300 | 3.2 | 16.1 | 0.00 | 0.00 | 0.00 | 65 | 1021.9 |
| 20260505063825 | 16 | 303 | 6.4 | 8.0 | 0.00 | 0.00 | 0.00 | 65 | 1021.9 |
| 20260505063321 | 16 | 13 | 4.8 | 22.5 | 0.00 | 0.00 | 0.00 | 65 | 1021.8 |
| 20260505062817 | 17 | 308 | 8.0 | 8.0 | 0.00 | 0.00 | 0.00 | 64 | 1022.1 |
| 20260505062315 | 17 | 297 | 4.8 | 9.7 | 0.00 | 0.00 | 0.00 | 64 | 1022.0 |
| 20260505061812 | 17 | 349 | 4.8 | 14.5 | 0.00 | 0.00 | 0.00 | 64 | 1022.1 |
| 20260505061310 | 17 | 281 | 17.7 | 19.3 | 0.00 | 0.00 | 0.00 | 64 | 1022.2 |
| 20260505060807 | 17 | 257 | 19.3 | 20.9 | 0.00 | 0.00 | 0.00 | 63 | 1022.2 |
| 20260505060304 | 16 | 291 | 3.2 | 11.3 | 0.00 | 0.00 | 0.00 | 64 | 1022.3 |
| 20260505055759 | 16 | 291 | 4.8 | 9.7 | 0.00 | 0.00 | 0.00 | 64 | 1022.3 |
| 20260505055256 | 17 | 2 | 3.2 | 9.7 | 0.00 | 0.00 | 0.00 | 63 | 1022.4 |
| 20260505054753 | 17 | 232 | 3.2 | 14.5 | 0.00 | 0.00 | 0.00 | 63 | 1022.3 |
| 20260505054251 | 16 | 300 | 3.2 | 11.3 | 0.00 | 0.00 | 0.00 | 64 | 1022.4 |
| 20260505053749 | 17 | 266 | 6.4 | 11.3 | 0.00 | 0.00 | 0.00 | 64 | 1022.3 |
| 20260505053245 | 17 | 253 | 6.4 | 6.4 | 0.00 | 0.00 | 0.00 | 64 | 1022.4 |
| 20260505052743 | 17 | 234 | 4.8 | 8.0 | 0.00 | 0.00 | 0.00 | 64 | 1022.2 |
| 20260505052239 | 17 | 256 | 11.3 | 14.5 | 0.00 | 0.00 | 0.00 | 64 | 1022.1 |
| 20260505051736 | 17 | 68 | 4.8 | 9.7 | 0.00 | 0.00 | 0.00 | 64 | 1022.2 |
| 20260505051234 | 17 | 27 | 3.2 | 9.7 | 0.00 | 0.00 | 0.00 | 64 | 1022.3 |
| 20260505050732 | 17 | 271 | 4.8 | 9.7 | 0.00 | 0.00 | 0.00 | 64 | 1022.3 |
| 20260505050230 | 17 | 283 | 6.4 | 11.3 | 0.00 | 0.00 | 0.00 | 63 | 1022.3 |
| 20260505041700 | 17 | 284 | 4.8 | 12.9 | 0.00 | 0.00 | 0.00 | 62 | 1022.4 |
| 20260505041157 | 17 | 179 | 3.2 | 11.3 | 0.00 | 0.00 | 0.00 | 62 | 1022.4 |
| 20260505040654 | 17 | 255 | 14.5 | 17.7 | 0.00 | 0.00 | 0.00 | 62 | 1022.5 |
| 20260505040151 | 17 | 340 | 3.2 | 11.3 | 0.00 | 0.00 | 0.00 | 62 | 1022.4 |
| 20260505035648 | 17 | 354 | 3.2 | 14.5 | 0.00 | 0.00 | 0.00 | 61 | 1022.2 |
| 20260505035144 | 16 | 336 | 6.4 | 16.1 | 0.00 | 0.00 | 0.00 | 61 | 1022.6 |
| 20260505034640 | 16 | 62 | 4.8 | 8.0 | 0.00 | 0.00 | 0.00 | 60 | 1022.5 |
| 20260505034138 | 16 | 332 | 4.8 | 6.4 | 0.00 | 0.00 | 0.00 | 59 | 1022.5 |
| 20260505033634 | 16 | 83 | 1.6 | 9.7 | 0.00 | 0.00 | 0.00 | 58 | 1022.4 |
| 20260505033133 | 16 | 265 | 3.2 | 9.7 | 0.00 | 0.00 | 0.00 | 57 | 1022.6 |
| 20260505032630 | 16 | 232 | 6.4 | 8.0 | 0.00 | 0.00 | 0.00 | 56 | 1022.6 |
| 20260505032126 | 17 | 118 | 3.2 | 6.4 | 0.00 | 0.00 | 0.00 | 55 | 1022.7 |
| 20260505031624 | 17 | 199 | 1.6 | 9.7 | 0.00 | 0.00 | 0.00 | 54 | 1022.8 |
| 20260505031120 | 17 | 275 | 4.8 | 4.8 | 0.00 | 0.00 | 0.00 | 53 | 1023.0 |
| 20260505030617 | 17 | 242 | 4.8 | 6.4 | 0.00 | 0.00 | 0.00 | 52 | 1022.9 |
| 20260505030113 | 17 | 253 | 4.8 | 6.4 | 0.00 | 0.00 | 0.00 | 50 | 1022.9 |
| 20260505025608 | 17 | 245 | 8.0 | 9.7 | 0.00 | 0.00 | 0.00 | 50 | 1023.0 |
| 20260505025108 | 17 | 263 | 6.4 | 6.4 | 0.00 | 0.00 | 0.00 | 49 | 1023.1 |
| 20260505024604 | 17 | 304 | 1.6 | 8.0 | 0.00 | 0.00 | 0.00 | 48 | 1023.2 |
| 20260505024102 | 17 | 319 | 3.2 | 6.4 | 0.00 | 0.00 | 0.00 | 47 | 1023.2 |
| 20260505023559 | 17 | 354 | 4.8 | 9.7 | 0.00 | 0.00 | 0.00 | 46 | 1023.1 |
| 20260505023056 | 17 | 200 | 4.8 | 11.3 | 0.00 | 0.00 | 0.00 | 45 | 1023.3 |
| 20260505022554 | 17 | 262 | 6.4 | 9.7 | 0.00 | 0.00 | 0.00 | 45 | 1023.4 |
| 20260505022051 | 17 | 180 | 1.6 | 8.0 | 0.00 | 0.00 | 0.00 | 44 | 1023.1 |
| 20260505021547 | 17 | 247 | 6.4 | 8.0 | 0.00 | 0.00 | 0.00 | 43 | 1023.3 |
| 20260505021044 | 17 | 258 | 12.9 | 14.5 | 0.00 | 0.00 | 0.00 | 42 | 1023.4 |
| 20260505020543 | 18 | 211 | 0.0 | 6.4 | 0.00 | 0.00 | 0.00 | 42 | 1023.3 |
| 20260505020041 | 18 | 207 | 4.8 | 6.4 | 0.00 | 0.00 | 0.00 | 41 | 1023.3 |
| 20260505015538 | 18 | 266 | 3.2 | 4.8 | 0.00 | 0.00 | 0.00 | 40 | 1023.3 |